Вернуться в каталог

HAWK-3C

АктивенВоенныеPO
NORAD 48948·PAYLOAD·🇺🇸 United States

Запущен Jun 30, 2021 с Cape Canaveral Space Force Station

Loading…

Ближайшие Пролёты (ближайшие 24 часа)

TLE

СвежийSource: Space-Track

Эпоха: Sep 14, 2026, 08:47 UTC

1 48948U 21059BX  26257.36615410  .00048328  00000-0  29310-3 0  9991
2 48948  97.6652 108.8392 0003701  11.6177 348.5173 15.77411730291879

Отслеживайте HAWK-3C в реальном времени с AllMySat

Download on the App Store